Location: Arclight Observatory
(36.5667°N, 87.3333°W)
Time: 08:56:41
(UTC-05:00)

Daily predictions for brighter satellites

Satellite Brightness Start Highest point End
(mag) Time Altitude Azimuth Time Altitude Azimuth Time Altitude Azimuth
deb Chang Zheng 4 4.2 20:34:51 10° NNE 20:38:51 35° E 20:42:49 10° SSE
Cosmos 1515 Rocket 3.6 20:36:50 10° N 20:41:16 71° E 20:45:37 10° SSE
Cosmos 304 Rocket 4.4 20:37:06 10° N 20:41:40 42° ENE 20:46:13 10° SE
Cosmos 1939 Rocket 3.7 20:44:18 10° SE 20:47:49 33° ENE 20:51:20 10° N
Cosmos 1151 Rocket 3.4 20:45:25 10° N 20:49:37 48° E 20:53:48 10° SSE
CZ-4 DEB 3.1 20:49:55 10° S 20:53:06 68° WSW 20:56:18 10° NNW
DELTA 2 R/B (1) 3.6 20:48:13 10° WNW 20:53:47 77° SSW 20:59:15 10° ESE
SPOT 5 3.9 20:51:34 10° SE 20:55:31 29° ENE 20:59:39 10° N
Cosmos 2219 3.2 20:54:42 10° S 21:00:24 69° ESE 21:06:08 10° NNE
Cosmos 1680 Rocket 3.6 20:58:54 10° NNW 21:04:09 68° ENE 21:09:18 10° SSE
Cosmos 405 3.0 21:02:22 10° N 21:06:00 86° E 21:09:35 10° S
Aureole 3 4.4 20:59:47 10° S 21:06:18 60° E 21:11:30 10° NNE
Cosmos 1805 Rocket 4.2 21:02:29 10° SSE 21:06:36 38° E 21:10:44 10° NNE
Cosmos 2237 Rocket 4.2 21:03:45 10° NNE 21:06:40 14° NE 21:09:35 10° E
Cosmos 1328 3.8 21:04:00 10° S 21:07:52 59° E 21:11:46 10° NNE
H-2A R/B 4.3 21:08:34 10° ENE 21:09:12 10° ENE 21:09:50 10° NE
Cosmos 2322 Rocket 3.9 21:04:27 10° NW 21:09:14 29° WSW 21:14:00 10° SSW
Cosmos 923 Rocket 4.1 21:04:23 10° NNW 21:09:35 81° WSW 21:14:46 10° SSE
USA 186 3.9 21:10:02 10° SW 21:11:24 15° W 21:12:49 10° WNW
Cosmos 2266 Rocket 4.1 21:05:41 10° S 21:11:59 86° W 21:18:13 10° N
DELTA 2 R/B(2) 4.3 21:10:46 10° W 21:12:18 35° N 21:14:12 10° ENE
Cosmos 2322 3.8 21:06:45 10° NNW 21:12:30 87° WSW 21:18:02 11° SSE
Cosmos 1898 Rocket 3.9 21:08:42 10° S 21:13:32 42° ESE 21:18:24 10° NNE
Cosmos 2360 Rocket 2.3 21:11:23 10° NNW 21:17:03 78° WSW 21:22:32 11° SSE
NOSS 3-1 (A) 3.3 21:13:48 10° SSW 21:19:31 67° ESE 21:25:49 10° NE
SL-16 R/B 4.2 21:17:44 10° NW 21:22:12 24° WSW 21:26:41 10° SSW
H-2A R/B 2.2 21:19:17 10° SSE 21:23:48 83° WSW 21:28:20 10° NNW
SL-14 R/B 3.7 21:23:01 16° SSE 21:25:48 42° E 21:29:37 10° NNE
Cosmos 1437 3.7 21:22:43 10° SSW 21:25:52 49° W 21:29:05 10° N
Cosmos 2150 Rocket 4.1 21:21:24 10° S 21:26:43 59° ESE 21:32:06 10° NNE
Cosmos 1707 Rocket 3.9 21:23:51 10° N 21:28:05 47° E 21:30:45 21° SE
Cosmos 2315 Rocket 4.0 21:21:54 10° N 21:28:06 71° E 21:33:34 14° SSE
OTV 4 0.6 21:25:19 10° SW 21:28:11 47° SSE 21:29:40 24° E
YAOGAN 6 3.5 21:27:34 22° ESE 21:29:14 33° ENE 21:32:30 10° N
Cosmos 1666 Rocket 3.8 21:25:56 14° SSE 21:29:28 51° E 21:33:46 10° NNE
Cosmos 1674 4.4 21:26:19 10° SSW 21:29:50 35° W 21:33:25 10° NNW
Meteor 1-27 4.4 21:26:35 10° N 21:32:09 56° ENE 21:36:02 19° SSE
Terra 3.9 21:31:05 10° E 21:33:01 13° ENE 21:35:05 10° NE
Cosmos 1244 Rocket 4.5 21:32:19 10° S 21:38:36 75° E 21:44:52 10° N
ATLAS 2AS CENTAUR R/B 3.3 21:35:01 10° S 21:41:43 41° ESE 21:48:57 10° NE
Cosmos 2227 Rocket 2.7 21:39:38 18° SSE 21:43:20 39° ESE 21:48:32 10° NE
ERS-1 Rocket 4.3 21:40:41 10° SSW 21:45:17 37° W 21:49:57 10° NNW
ERBS 2.2 21:42:35 10° SW 21:46:04 74° SE 21:49:33 10° NE
CZ-4 SHROUD 3.2 21:45:24 31° S 21:46:44 79° WSW 21:49:52 10° NNW
Cosmos 1300 2.6 21:44:00 10° N 21:47:51 86° E 21:49:47 28° S
Tiangong 1 2.7 21:45:52 10° W 21:48:44 34° NNW 21:51:36 10° NE
OAO 2 Rocket 3.4 21:44:17 10° WSW 21:49:34 69° S 21:53:39 17° E
Envisat 3.5 21:45:26 13° S 21:49:52 57° W 21:54:53 10° NNW
ATLAS 3B R/B 4.3 21:49:11 10° N 21:54:40 23° NE 21:59:20 12° E
MetOp-A 4.1 21:51:21 22° SSE 21:54:57 86° WSW 22:00:20 10° NNW
Cosmos 1745 Rocket 4.2 21:52:10 23° SSE 21:55:55 53° E 22:01:54 10° NNE
Meteor 1-11 4.4 21:51:15 10° SSW 21:57:01 74° W 22:02:45 10° N
SL-16 R/B 4.1 21:58:07 10° NNE 22:01:49 17° NE 22:04:25 13° E
Lacrosse 4 Rocket 3.9 22:00:09 10° NNE 22:01:58 12° NE 22:03:42 10° ENE
Cosmos 2058 4.2 21:58:41 10° SSW 22:02:31 39° W 22:06:23 10° N
USA 32 4.1 21:57:22 10° N 22:02:36 62° E 22:04:53 33° SSE
Cosmos 2333 Rocket 2.7 21:59:36 10° N 22:05:09 47° ENE 22:07:32 30° ESE
Delta 2 Rocket 2.8 22:01:34 10° W 22:05:09 61° S 22:05:23 58° SSE
Hubble Space Telescope 2.5 22:02:03 10° SW 22:03:43 18° SSW 22:03:43 18° SSW
ARGOS 3.2 22:03:30 31° SSE 22:06:05 69° ENE 22:11:27 10° N
CZ-4 R/B 3.8 22:02:44 10° NNE 22:07:39 73° ESE 22:10:05 29° S
Cosmos 1937 Rocket 3.5 22:03:50 10° SSW 22:09:05 80° WNW 22:14:18 10° NNE
Cosmos 2297 Rocket 2.5 22:07:58 33° SSE 22:09:56 45° ESE 22:15:18 10° NE
Cosmos 1455 3.2 22:06:40 10° NNE 22:10:06 31° ENE 22:10:08 31° E
COSMOS 2455 4.2 22:10:10 10° N 22:15:12 27° NE 22:17:55 20° E
Cosmos 990 Rocket 3.8 22:13:16 22° SSW 22:16:35 85° ESE 22:21:45 10° NNE
Cosmos 2219 Rocket 2.1 22:11:08 10° NNW 22:16:45 78° ENE 22:18:54 39° SSE
COSMOS 2428 3.3 22:11:27 10° NNW 22:16:56 50° WSW 22:20:00 25° S
Cosmos 1726 2.9 22:13:51 10° NNW 22:17:31 48° W 22:18:49 32° SSW
Sich 1 4.1 22:17:18 15° SSW 22:20:45 44° W 22:24:58 10° N
CARTOSAT-1 4.1 22:25:07 41° E 22:25:33 43° ENE 22:29:38 10° N
Cosmos 1862 Rocket 3.6 22:22:56 10° N 22:27:12 55° E 22:27:33 53° E
Cosmos 1633 Rocket 4.3 22:24:02 15° SW 22:27:16 39° W 22:31:23 10° N
Cosmos 2242 Rocket 4.1 22:26:03 10° NNW 22:30:26 56° W 22:31:58 37° SSW
CZ-4B R/B 4.4 22:25:36 10° N 22:30:38 48° WNW 22:35:20 11° SW
Meteor 1-4 Rocket 3.3 22:27:04 10° NNW 22:30:39 46° W 22:31:14 42° SW
Meteor 2-10 4.2 22:25:03 10° N 22:30:49 84° W 22:33:01 40° S
Cosmos 1980 3.6 22:33:45 10° NNW 22:39:26 85° ENE 22:40:54 52° SSE
IGS 5A 3.6 22:43:40 59° ENE 22:43:40 59° ENE 22:47:42 10° N
Cosmos 1869 3.3 22:41:04 10° N 22:44:53 71° NE 22:44:53 71° NE
Spot 2 4.3 22:40:48 10° NNE 22:45:48 62° E 22:46:03 61° ESE
H-2A R/B 2.0 22:46:30 56° SSE 22:47:41 85° ENE 22:53:09 10° NNW
FALCON 9 R/B 3.7 22:22:51 10° W 22:49:47 81° S 22:54:01 30° ESE
Cosmos 2237 Rocket 2.1 22:45:43 10° NNW 22:51:26 83° WSW 22:52:40 57° S
Cosmos 1271 Rocket 4.3 22:48:16 10° NNW 22:51:36 28° W 22:52:15 27° WSW
DELTA 2 DEB (DPAF) 4.4 22:52:03 54° SW 22:52:36 59° W 22:57:02 10° NNW
CZ-4C R/B 4.0 22:54:41 44° WNW 22:54:41 44° WNW 22:57:34 10° NNW
Landsat 7 4.0 22:53:36 55° SW 22:54:19 63° W 22:59:03 10° NNW
Cosmos 2082 4.4 22:49:35 13° SW 22:54:33 52° WNW 23:00:09 10° NNE
Cosmos 1626 3.0 22:56:29 44° W 22:56:33 44° W 23:00:11 10° N
Cosmos 1125 Rocket 3.4 23:00:30 64° SSW 23:01:22 90° NW 23:06:43 10° NNE
Cosmos 44 Rocket 3.6 23:03:45 54° E 23:03:45 54° E 23:08:13 10° NE
Cosmos 1048 Rocket 4.3 22:59:07 10° N 23:04:22 52° ENE 23:04:47 51° E
NOSS 2-3 (D) 4.0 23:05:33 62° E 23:05:33 62° E 23:10:22 10° NE
Terra 2.0 23:09:58 62° WSW 23:10:12 62° W 23:14:55 10° NNW
Okean 1-7 4.2 23:09:12 10° N 23:12:15 34° NE 23:12:15 34° NE
Meteor 2-3 Rocket 4.3 23:17:03 43° E 23:17:03 43° E 23:22:07 10° NNE
Cosmos 372 Rocket 4.0 23:17:21 69° ENE 23:17:21 69° ENE 23:22:15 10° NNE
Spot 4 4.0 23:21:30 63° W 23:21:30 63° W 23:26:19 10° NNW
Tiangong 1 3.9 23:23:11 10° NW 23:24:22 18° NW 23:24:22 18° NW
Cosmos 2227 Rocket 4.1 23:22:43 10° WSW 23:27:26 27° WNW 23:32:12 10° N
Cosmos 1703 Rocket 4.0 23:24:13 10° N 23:27:50 59° NNW 23:27:50 59° NNW
ATLAS 2AS CENTAUR R/B 4.0 23:25:31 10° WSW 23:32:38 44° NW 23:40:16 10° NNE
OAO 2 Rocket 4.2 23:29:02 10° W 23:32:37 42° WSW 23:32:37 42° WSW
Lacrosse 4 Rocket 2.4 23:36:43 10° NNW 23:40:03 48° NW 23:40:03 48° NW
Cosmos 2074 Rocket 3.8 23:45:00 76° SE 23:45:18 78° E 23:51:37 10° N
ATLAS 3B R/B 2.5 23:39:11 10° NW 23:46:04 73° WSW 23:46:35 69° SSW
SL-16 R/B 2.3 23:40:47 10° NNW 23:46:17 65° W 23:46:17 65° W
Cosmos 2227 4.2 23:49:12 73° NE 23:49:12 73° NE 23:54:25 10° NNE
Cosmos 2333 Rocket 3.9 23:44:44 10° NW 23:49:01 22° W 23:49:33 22° WSW
Cosmos 2297 Rocket 4.2 23:49:42 10° WSW 23:54:10 23° WNW 23:58:39 10° N
